FW6366 Weather Reports


Display with metric or nautical units.
time (UTC)temp
F
wind
direction
speed
MPH
gust
MPH
rain 1hr
in
rain 24hr
in
rain mn
in
humidity
%
barometer
mb
20260504034614 38 198 0.0 4.0 0.00 0.00 0.00 81 1009.7
20260504034059 38 241 2.0 4.0 0.00 0.00 0.00 81 1009.7
20260504033559 38 277 0.0 3.0 0.00 0.00 0.00 81 1009.7
20260504033100 38 0 0.0 4.0 0.00 0.00 0.00 81 1009.7
20260504032559 38 0 1.0 4.0 0.00 0.00 0.00 81 1009.7
20260504032059 37 230 0.0 2.0 0.00 0.00 0.00 81 1009.7
20260504031559 37 0 0.0 2.0 0.00 0.00 0.00 80 1009.8
20260504031059 37 0 0.0 2.0 0.00 0.00 0.00 81 1009.7
20260504030600 37 0 0.0 2.0 0.00 0.00 0.00 81 1009.6
20260504030100 37 0 0.0 3.0 0.00 0.00 0.00 82 1009.6
20260504025558 36 262 0.0 3.0 0.00 0.00 0.00 82 1009.7
20260504025059 35 297 0.0 2.0 0.00 0.00 0.00 84 1009.7
20260504024559 35 304 0.0 2.0 0.00 0.00 0.00 84 1009.6
20260504024059 35 0 0.0 2.0 0.00 0.00 0.00 83 1009.6
20260504023559 35 0 0.0 2.0 0.00 0.00 0.00 83 1009.6
20260504023100 35 157 0.0 2.0 0.00 0.00 0.00 82 1009.6
20260504022559 35 0 0.0 3.0 0.00 0.00 0.00 83 1009.7
20260504022058 35 0 0.0 3.0 0.00 0.00 0.00 83 1009.8
20260504021601 35 0 0.0 2.0 0.00 0.00 0.00 83 1009.9
20260504021057 35 165 0.0 2.0 0.00 0.00 0.00 83 1009.9
20260504020602 35 0 0.0 2.0 0.00 0.00 0.00 82 1009.9
20260504020059 36 0 0.0 2.0 0.00 0.00 0.00 81 1009.9
20260504015559 36 202 0.0 3.0 0.00 0.00 0.00 81 1009.9
20260504015101 36 153 0.0 3.0 0.00 0.00 0.00 81 1009.9
20260504014618 36 0 0.0 3.0 0.00 0.00 0.00 80 1010.0
20260504014100 36 169 0.0 3.0 0.00 0.00 0.00 79 1010.0
20260504013559 36 0 0.0 3.0 0.00 0.00 0.00 78 1010.0
20260504013104 37 0 0.0 3.0 0.00 0.00 0.00 78 1009.8
20260504012557 37 0 1.0 3.0 0.00 0.00 0.00 78 1009.7
20260504012059 37 0 0.0 3.0 0.00 0.00 0.00 78 1009.7
20260504011603 37 0 0.0 3.0 0.00 0.00 0.00 78 1009.6
20260504011102 37 176 0.0 3.0 0.00 0.00 0.00 78 1009.5
20260504010559 37 152 0.0 3.0 0.00 0.00 0.00 78 1009.5
20260504010100 38 0 0.0 2.0 0.00 0.00 0.00 77 1009.4
20260504005558 38 0 0.0 1.0 0.00 0.00 0.00 75 1009.2
20260504005059 38 0 0.0 1.0 0.00 0.00 0.00 77 1009.3
20260504004559 39 0 0.0 2.0 0.00 0.00 0.00 76 1009.1
20260504004057 39 181 0.0 2.0 0.00 0.00 0.00 76 1009.0
20260504003603 40 292 1.0 2.0 0.00 0.00 0.00 74 1009.1
20260504003101 40 286 0.0 2.0 0.00 0.00 0.00 75 1009.0
20260504002558 40 0 0.0 2.0 0.00 0.00 0.00 73 1008.9
20260504002059 41 283 1.0 3.0 0.00 0.00 0.00 72 1008.9
20260504001616 41 305 1.0 3.0 0.00 0.00 0.00 70 1008.8
20260504001059 42 307 2.0 3.0 0.00 0.00 0.00 68 1008.7
20260504000559 42 302 1.0 3.0 0.00 0.00 0.00 68 1008.6
20260504000100 42 300 1.0 3.0 0.00 0.00 0.00 68 1008.6
20260503235600 43 301 0.0 4.0 0.00 0.00 0.00 68 1008.6
20260503235059 44 0 2.0 4.0 0.00 0.00 0.00 65 1008.5
20260503234600 44 301 3.0 4.0 0.00 0.00 0.00 63 1008.3
20260503234059 45 279 2.0 4.0 0.00 0.00 0.00 62 1008.3
20260503233559 45 302 2.0 4.0 0.00 0.00 0.00 61 1008.3
20260503233103 45 300 1.0 3.0 0.00 0.00 0.00 62 1008.2
20260503232558 45 307 1.0 4.0 0.00 0.00 0.00 62 1008.1
20260503232058 45 271 1.0 4.0 0.00 0.00 0.00 60 1008.2
20260503231559 45 0 1.0 3.0 0.00 0.00 0.00 63 1008.1
20260503231101 45 297 2.0 3.0 0.00 0.00 0.00 60 1008.0
20260503230601 46 306 1.0 3.0 0.00 0.00 0.00 58 1008.0
20260503230100 46 299 1.0 3.0 0.00 0.00 0.00 57 1008.0
20260503225557 46 275 1.0 4.0 0.00 0.00 0.00 56 1008.1
20260503225101 46 297 1.0 4.0 0.00 0.00 0.00 59 1008.0
20260503224559 47 302 1.0 4.0 0.00 0.00 0.00 56 1008.1
20260503224059 47 325 1.0 4.0 0.00 0.00 0.00 52 1007.9
20260503223558 48 0 0.0 6.0 0.00 0.00 0.00 53 1008.1
20260503223059 48 285 1.0 8.0 0.00 0.00 0.00 52 1008.1
20260503222558 49 63 2.0 10.0 0.00 0.00 0.00 42 1008.1
20260503222058 49 348 1.0 10.0 0.00 0.00 0.00 46 1008.1
20260503221558 50 345 4.0 10.0 0.00 0.00 0.00 41 1008.2
20260503221059 50 8 3.0 11.0 0.00 0.00 0.00 41 1008.2
20260503220559 50 340 3.0 11.0 0.00 0.00 0.00 41 1008.2
20260503220104 50 56 3.0 11.0 0.00 0.00 0.00 42 1008.1
20260503215601 50 1 2.0 9.0 0.00 0.00 0.00 42 1008.1
20260503215057 50 0 2.0 14.0 0.00 0.00 0.00 45 1008.1
20260503214559 50 100 2.0 16.0 0.00 0.00 0.00 43 1008.1
20260503214104 50 1 3.0 16.0 0.00 0.00 0.00 42 1008.1
20260503213603 50 72 4.0 16.0 0.00 0.00 0.00 41 1008.1
20260503213111 50 79 2.0 10.0 0.00 0.00 0.00 44 1008.1
20260503212600 50 20 2.0 7.0 0.00 0.00 0.00 44 1008.1
20260503212059 50 63 1.0 7.0 0.00 0.00 0.00 47 1008.0
20260503211559 50 224 2.0 9.0 0.00 0.00 0.00 47 1008.1
20260503211057 50 341 1.0 11.0 0.00 0.00 0.00 48 1007.9
20260503210559 50 59 2.0 11.0 0.00 0.00 0.00 44 1007.9
20260503210105 50 49 2.0 8.0 0.00 0.00 0.00 43 1007.9
20260503205559 50 49 3.0 8.0 0.00 0.00 0.00 45 1007.9
20260503205103 50 343 1.0 8.0 0.00 0.00 0.00 49 1008.0
20260503204601 50 27 2.0 13.0 0.00 0.00 0.00 46 1008.1
20260503204102 50 50 5.0 13.0 0.00 0.00 0.00 46 1008.1
20260503203600 50 24 0.0 11.0 0.00 0.00 0.00 48 1008.1
20260503203104 49 311 2.0 11.0 0.00 0.00 0.00 49 1008.3
20260503202600 50 331 3.0 11.0 0.00 0.00 0.00 45 1008.4
20260503202100 50 30 2.0 11.0 0.00 0.00 0.00 47 1008.2
20260503201600 49 25 3.0 9.0 0.00 0.00 0.00 45 1008.4
20260503201100 49 193 2.0 9.0 0.00 0.00 0.00 48 1008.4
20260503200604 49 178 1.0 7.0 0.00 0.00 0.00 48 1008.3
20260503200105 49 79 0.0 5.0 0.00 0.00 0.00 47 1008.3
20260503195559 49 226 1.0 6.0 0.00 0.00 0.00 46 1008.5
20260503195059 49 0 0.0 8.0 0.00 0.00 0.00 46 1008.6
20260503194600 49 44 2.0 8.0 0.00 0.00 0.00 47 1008.6
20260503194103 49 340 2.0 11.0 0.00 0.00 0.00 46 1008.6
20260503193558 49 11 5.0 11.0 0.00 0.00 0.00 46 1008.8
20260503193112 49 68 2.0 11.0 0.00 0.00 0.00 46 1008.8
20260503192558 49 304 3.0 11.0 0.00 0.00 0.00 47 1008.8
20260503192100 49 60 3.0 12.0 0.00 0.00 0.00 46 1008.8
20260503191609 49 32 1.0 12.0 0.00 0.00 0.00 51 1008.8
20260503191057 49 354 4.0 13.0 0.00 0.00 0.00 46 1008.9
20260503190601 49 338 3.0 13.0 0.00 0.00 0.00 44 1008.8
20260503190101 49 132 2.0 12.0 0.00 0.00 0.00 49 1008.8
20260503185600 49 338 1.0 12.0 0.00 0.00 0.00 48 1008.8
20260503185102 49 75 5.0 14.0 0.00 0.00 0.00 45 1008.8
20260503184611 49 0 4.0 14.0 0.00 0.00 0.00 48 1008.8
20260503184100 48 73 1.0 8.0 0.00 0.00 0.00 48 1009.1
20260503183557 48 18 1.0 9.0 0.00 0.00 0.00 49 1009.0
20260503183110 48 347 1.0 9.0 0.00 0.00 0.00 49 1009.1
20260503182603 48 20 1.0 7.0 0.00 0.00 0.00 49 1009.1
20260503182059 48 356 3.0 8.0 0.00 0.00 0.00 47 1009.1
20260503181609 48 71 1.0 11.0 0.00 0.00 0.00 49 1009.1
20260503181058 48 331 3.0 11.0 0.00 0.00 0.00 47 1009.1
20260503180559 48 5 2.0 10.0 0.00 0.00 0.00 47 1009.1
20260503180057 48 0 4.0 10.0 0.00 0.00 0.00 48 1009.1
20260503175601 48 54 4.0 11.0 0.00 0.02 0.00 46 1009.1
20260503175101 48 254 4.0 11.0 0.00 0.02 0.00 48 1009.2
20260503174600 48 58 1.0 10.0 0.00 0.02 0.00 49 1009.1
20260503174100 47 219 3.0 10.0 0.00 0.02 0.00 48 1009.0
20260503173600 47 0 2.0 13.0 0.00 0.02 0.00 46 1009.2
20260503173102 47 0 3.0 13.0 0.00 0.02 0.00 47 1009.1
20260503172600 48 53 5.0 13.0 0.00 0.02 0.00 50 1009.1
20260503172059 48 356 2.0 9.0 0.00 0.02 0.00 50 1009.2
20260503171600 48 224 1.0 5.0 0.00 0.02 0.00 50 1009.1
20260503171100 47 69 0.0 5.0 0.00 0.02 0.00 52 1009.0
20260503170600 47 0 1.0 5.0 0.00 0.02 0.00 53 1009.0
20260503150600 47 21 4.0 11.0 0.00 0.05 0.00 53 1009.2
20260503131103 44 76 5.0 11.0 0.00 0.06 0.00 73 1010.0
20260503130559 44 40 4.0 9.0 0.00 0.06 0.00 74 1010.0
20260503110559 38 0 0.0 0.0 0.00 0.18 0.00 96 1010.2
20260503090105 37 0 0.0 1.0 0.00 0.23 0.00 96 1010.2
20260503081629 37 0 0.0 3.0 0.00 0.26 0.00 95 1010.7
20260503081100 37 0 0.0 1.0 0.00 0.26 0.00 96 1010.6
20260503080600 37 0 0.0 1.0 0.00 0.26 0.00 96 1010.7
20260503080117 37 0 0.0 1.0 0.00 0.26 0.00 95 1010.7
20260503072559 37 0 0.0 0.0 0.00 0.28 0.00 96 1010.8
20260503072059 37 0 0.0 1.0 0.00 0.28 0.00 96 1010.7
20260503071930 37 0 0.0 1.0 0.00 0.28 0.00 96 1010.7
20260503071059 37 0 0.0 1.0 0.00 0.28 0.00 96 1010.7
20260503070602 37 0 0.0 0.0 0.00 0.28 0.00 96 1010.9
20260503070107 37 0 0.0 0.0 0.00 0.28 0.00 95 1010.9
20260503060104 37 0 0.0 1.0 0.00 0.30 0.00 95 1011.2
20260503055059 37 0 0.0 1.0 0.00 0.32 0.00 95 1011.4
20260503054605 37 0 0.0 1.0 0.00 0.32 0.00 95 1011.4
20260503054104 37 0 0.0 0.0 0.00 0.32 0.00 95 1011.4
20260503053600 37 0 0.0 0.0 0.00 0.32 0.00 95 1011.5
20260503053105 37 0 0.0 0.0 0.00 0.32 0.00 95 1011.6
20260503052603 37 0 0.0 0.0 0.00 0.32 0.00 95 1011.5
20260503052059 36 0 0.0 0.0 0.00 0.32 0.00 95 1011.5
20260503051558 36 0 0.0 0.0 0.00 0.32 0.00 95 1011.6
20260503051058 37 0 0.0 0.0 0.00 0.32 0.00 95 1011.6
20260503050559 36 0 0.0 1.0 0.00 0.32 0.00 95 1011.6
20260503050105 36 0 0.0 1.0 0.00 0.32 0.00 95 1011.7
20260503045559 36 325 0.0 1.0 0.00 0.33 0.00 95 1011.8
20260503045058 36 0 0.0 1.0 0.00 0.33 0.00 95 1011.7
20260503044614 37 0 0.0 2.0 0.00 0.33 0.00 95 1011.8
20260503044059 37 0 0.0 2.0 0.00 0.33 0.00 95 1011.9
20260503043600 37 0 0.0 1.0 0.00 0.33 0.00 95 1011.9
20260503043102 37 0 0.0 2.0 0.00 0.33 0.00 95 1011.9
20260503042600 37 0 0.0 2.0 0.00 0.33 0.00 95 1012.0
20260503042100 37 354 0.0 1.0 0.00 0.33 0.00 95 1012.0
20260503041608 37 0 0.0 0.0 0.00 0.33 0.00 95 1012.0
20260503041059 37 0 0.0 0.0 0.00 0.33 0.00 94 1012.0
20260503040600 37 0 0.0 0.0 0.00 0.33 0.00 94 1012.2
20260503035559 37 0 0.0 0.0 0.00 0.33 0.33 94 1012.2
20260503035059 37 0 0.0 0.0 0.00 0.33 0.33 94 1012.4